Flag for Germany Weather past 2 weeks in Wesseling, North Rhine-Westphalia, Germany

Now
55 °F

Overcast.


Feels Like: 53 °F
Forecast: 43 / 55 °F
Wind: 7 mph from Southwest

Location: Koeln / Bonn

Current Time: Dec 18, 2014 at 9:21:16 PM

Latest Report: Dec 18, 2014 at 9:00 PM


Visibility: 38 mi

Pressure: 29.95 "Hg

Humidity: 75%

Dew point: 47 °F

Location of WesselingLocation

Historic Weather in Wesseling — Graph

°F

Wesseling temperature yesterday

Maximum temperature yesterday: 49 °F (at 10:00 PM)
Minimum temperature yesterday: 36 °F (at 12:00 AM)
Average temperature yesterday: 42 °F

Past Weeks' High & Low Weather Summary

 TemperatureHumidityPressure
High56 °F (Dec 18, 7:00 PM)100% (Dec 7, 5:00 AM)30.40 "Hg (Dec 7, 5:00 AM)
Low31 °F (Dec 14, 11:00 PM)64% (Dec 10, 6:00 AM)29.44 "Hg (Dec 12, 6:00 PM)
Average40 °F88%30.00 "Hg
* Reported Dec 3 8:00 PM — Dec 18 8:00 PM, Wesseling, Weather by CustomWeather, © 2014

Note: Actual official high and low records may vary slightly from our data, if they occured in-between our weather recording intervals... More about our weather records

Advertising

Wesseling weather history for previous 24 hours

 ConditionsComfort  
Time TempWeatherWind HumidityBarometerVisibility
8:00 PM
Dec 18
55 °FOvercast.7 mph79%29.95 "Hg37 mi
7:00 PM56 °FOvercast.7 mph83%29.93 "Hg31 mi
6:00 PM55 °FOvercast.5 mph88%29.91 "Hg31 mi
5:00 PM55 °FOvercast.5 mph88%29.89 "Hg25 mi
4:00 PM54 °FOvercast.6 mph90%29.89 "Hg19 mi
3:00 PM54 °FLow clouds.5 mph92%29.88 "Hg12 mi
2:00 PM53 °FLow clouds.5 mph97%29.88 "Hg6 mi
1:00 PM52 °FDrizzle. Low clouds.3 mph97%29.88 "Hg16 mi
12:00 PM51 °FDrizzle. Low clouds.3 mph97%29.89 "Hg4 mi
11:00 AM51 °FDrizzle. Low clouds.2 mph99%29.89 "Hg2 mi
10:00 AM51 °FDrizzle. Low clouds.2 mph93%29.88 "Hg6 mi
9:00 AM50 °FLow clouds.2 mph94%29.88 "Hg7 mi
8:00 AM50 °FRain. Overcast.2 mph96%29.87 "Hg4 mi
7:00 AM50 °FDrizzle. Overcast.3 mph94%29.85 "Hg16 mi
6:00 AM50 °FDrizzle. Low clouds.5 mph93%29.85 "Hg11 mi
5:00 AM50 °FOvercast.5 mph91%29.85 "Hg28 mi
4:00 AM50 °FCool.5 mph93%29.86 "HgN/A
3:00 AM50 °FOvercast.3 mph96%29.88 "Hg12 mi
2:00 AM49 °FDrizzle. Low clouds.3 mph97%29.88 "Hg4 mi
1:00 AM49 °FDrizzle. Low clouds.3 mph99%29.87 "Hg5 mi
12:00 AM50 °FDrizzle. Low clouds.3 mph99%29.85 "Hg2 mi
11:00 PM
Dec 17
49 °FDrizzle. Low clouds.3 mph99%29.84 "Hg2 mi
10:00 PM49 °FDrizzle. Low clouds.3 mph99%29.82 "Hg2 mi
9:00 PM49 °FDrizzle. Low clouds.5 mph100%29.80 "Hg2 mi
Weather by CustomWeather, © 2014

See weather overviewHow to use our weather pages